Home   Weather   Faridabad   Past weeks

Flag for India Past Weather in Faridabad, Haryana, India — Yesterday and Last 2 Weeks

Now
90 °F

Scattered clouds.


Feels Like: 103 °F
Forecast: 77 / 93 °F
Wind: 6 mph from Southeast

Location: New Delhi Palam Airport

Current Time: Sep 25, 2016 at 11:10:34 AM

Latest Report: Sep 25, 2016 at 10:30 AM


Visibility: 2 mi

Pressure: 29.77 "Hg

Humidity: 67%

Dew Point: 77 °F

Location of FaridabadLocation

Past Weather in Faridabad — Graph

°F

Faridabad Temperature Yesterday

Maximum temperature yesterday: 93 °F (at 1:30 PM)
Minimum temperature yesterday: 81 °F (at 3:30 AM)
Average temperature yesterday: 86 °F

High & Low Weather Summary for the Past Weeks

 TemperatureHumidityPressure
High99 °F (Sep 20, 3:30 PM)89% (Sep 13, 6:00 AM)29.89 "Hg (Sep 13, 6:00 AM)
Low77 °F (Sep 11, 5:00 AM)34% (Sep 19, 2:00 PM)29.59 "Hg (Sep 20, 3:30 PM)
Average87 °F64%29.72 "Hg
* Reported Sep 10 9:30 AM — Sep 25 9:30 AM, Faridabad, Weather by CustomWeather, © 2016

Note: Actual official high and low records may vary slightly from our data, if they occured in-between our weather recording intervals... More about our weather records

Advertising

Faridabad Weather History for the Previous 24 Hours

Scroll right to see more
 ConditionsComfort  
Time TempWeatherWind HumidityBarometerVisibility
9:30 AM
Sun, Sep 25
84 °FFog.5 mph79%29.77 "Hg1 mi
9:00 AM84 °FFog.3 mph79%29.77 "Hg1 mi
8:30 AM84 °FFog.3 mph79%29.74 "Hg1 mi
8:00 AM81 °FFog.3 mph89%29.74 "Hg1 mi
7:30 AM81 °FFog.3 mph89%29.74 "Hg1 mi
7:00 AM81 °FFog.3 mph89%29.74 "Hg1 mi
6:30 AM79 °FFog.5 mph84%29.71 "Hg1 mi
6:00 AM79 °FFog.5 mph84%29.71 "Hg1 mi
5:30 AM79 °FFog.3 mph84%29.71 "Hg1 mi
5:00 AM81 °FFog.3 mph79%29.71 "Hg1 mi
4:30 AM81 °FFog.No wind79%29.68 "Hg1 mi
4:00 AM81 °FFog.No wind79%29.68 "Hg1 mi
3:30 AM81 °FFog.No wind79%29.68 "Hg1 mi
3:00 AM81 °FFog.No wind79%29.68 "Hg1 mi
2:30 AM81 °FFog.No wind79%29.68 "Hg1 mi
2:00 AM81 °FHaze.No wind74%29.68 "Hg1 mi
1:30 AM81 °FHaze.No wind74%29.68 "Hg1 mi
1:00 AM81 °FHaze.No wind74%29.68 "Hg1 mi
12:30 AM81 °FHaze.No wind74%29.68 "Hg1 mi
12:00 AM82 °FHaze.No wind70%29.68 "Hg2 mi
11:30 PM
Sat, Sep 24
82 °FHaze.No wind70%29.68 "Hg2 mi
11:00 PM82 °FHaze.No wind70%29.68 "Hg2 mi
10:30 PM82 °FPassing clouds.No wind70%29.68 "Hg2 mi
10:00 PM82 °FPassing clouds.No wind70%29.68 "Hg2 mi
9:30 PM82 °FPassing clouds.No wind70%29.68 "Hg2 mi
9:00 PM82 °FPassing clouds.No wind70%29.68 "Hg2 mi
8:30 PM84 °FPassing clouds.No wind70%29.68 "Hg2 mi
8:00 PM84 °FPassing clouds.No wind70%29.65 "Hg2 mi
7:30 PM84 °FPassing clouds.3 mph70%29.65 "Hg2 mi
7:00 PM86 °FPartly cloudy.6 mph66%29.62 "Hg2 mi
6:30 PM86 °FBroken clouds.6 mph66%29.62 "Hg2 mi
6:00 PM88 °FBroken clouds.7 mph62%29.62 "Hg2 mi
5:30 PM90 °FBroken clouds.7 mph59%29.62 "Hg2 mi
5:00 PM90 °FBroken clouds.5 mph59%29.62 "Hg2 mi
4:30 PM91 °FBroken clouds.5 mph52%29.62 "Hg2 mi
4:00 PM91 °FBroken clouds.5 mph52%29.62 "Hg2 mi
3:30 PM91 °FBroken clouds.6 mph52%29.62 "Hg2 mi
3:00 PM91 °FScattered clouds.5 mph52%29.65 "Hg2 mi
2:30 PM93 °FScattered clouds.6 mph47%29.65 "Hg2 mi
2:00 PM93 °FScattered clouds.6 mph53%29.65 "Hg2 mi
1:30 PM93 °FScattered clouds.6 mph56%29.68 "Hg2 mi
1:00 PM91 °FScattered clouds.7 mph59%29.71 "Hg2 mi
12:30 PM91 °FScattered clouds.7 mph59%29.71 "Hg2 mi
12:00 PM91 °FScattered clouds.6 mph59%29.74 "Hg2 mi
11:30 AM90 °FScattered clouds.6 mph63%29.74 "Hg2 mi
11:00 AM90 °FScattered clouds.6 mph63%29.74 "Hg2 mi
Weather by CustomWeather, © 2016

See weather overviewHow to use our weather pages